• In Hungary
  • List of Countries
  • For 7 days
  • Water Temperature
  • Satellite Maps
  • Weather Map
  • News
  • Weather Widgets
  • user-avatar
    Login

    Hourly Weather Tarija

    Today, 19 October, Thursday

    Time Temperature Precipitation Wind Pressure Humidity
    00:00 +23°C° 0 mm 1 mps 596 mmHg 56%
    01:00 +23°C° 0 mm 1 mps 596 mmHg 56%
    02:00 +23°C° 0 mm 1 mps 596 mmHg 56%
    03:00 +21°C° 0.7 mm 2 mps 596 mmHg 61%
    04:00 +20°C° 0.7 mm 2 mps 596 mmHg 67%
    05:00 +20°C° 0.7 mm 3 mps 596 mmHg 72%
    06:00 +19°C° 0.5 mm 3 mps 597 mmHg 76%
    07:00 +19°C° 0.5 mm 4 mps 598 mmHg 80%
    08:00 +19°C° 0.5 mm 5 mps 598 mmHg 85%
    09:00 +19°C° 0.2 mm 4 mps 598 mmHg 83%
    10:00 +19°C° 0.2 mm 4 mps 599 mmHg 81%
    11:00 +19°C° 0.2 mm 4 mps 599 mmHg 80%
    12:00 +19°C° 0.3 mm 4 mps 598 mmHg 81%
    13:00 +19°C° 0.3 mm 4 mps 597 mmHg 82%
    14:00 +19°C° 0.3 mm 4 mps 596 mmHg 83%
    15:00 +19°C° 0.1 mm 4 mps 596 mmHg 82%
    16:00 +19°C° 0.1 mm 3 mps 596 mmHg 80%
    17:00 +19°C° 0.1 mm 3 mps 595 mmHg 79%
    18:00 +18°C° 0.1 mm 3 mps 596 mmHg 81%
    19:00 +18°C° 0.1 mm 2 mps 596 mmHg 83%
    20:00 +17°C° 0.1 mm 2 mps 597 mmHg 85%
    21:00 +17°C° 0.1 mm 2 mps 597 mmHg 85%
    22:00 +17°C° 0.1 mm 2 mps 597 mmHg 85%
    23:00 +16°C° 0.1 mm 1 mps 597 mmHg 85%

    Tomorrow, 20 October, Friday

    Time Temperature Precipitation Wind Pressure Humidity
    00:00 +16°C° 0.1 mm 1 mps 596 mmHg 85%
    01:00 +16°C° 0.1 mm 2 mps 596 mmHg 86%
    02:00 +16°C° 0.1 mm 2 mps 595 mmHg 87%
    03:00 +16°C° 0 mm 2 mps 595 mmHg 86%
    04:00 +16°C° 0 mm 2 mps 595 mmHg 84%
    05:00 +16°C° 0 mm 2 mps 595 mmHg 83%
    06:00 +18°C° 0.1 mm 2 mps 595 mmHg 76%
    07:00 +19°C° 0.1 mm 2 mps 596 mmHg 68%
    08:00 +21°C° 0.1 mm 3 mps 596 mmHg 60%
    09:00 +24°C° 0 mm 3 mps 597 mmHg 49%
    10:00 +26°C° 0 mm 3 mps 597 mmHg 38%
    11:00 +28°C° 0 mm 3 mps 597 mmHg 26%
    12:00 +29°C° 0 mm 3 mps 597 mmHg 24%
    13:00 +30°C° 0 mm 3 mps 596 mmHg 22%
    14:00 +31°C° 0 mm 3 mps 595 mmHg 20%
    15:00 +30°C° 0.1 mm 4 mps 595 mmHg 26%
    16:00 +30°C° 0.1 mm 5 mps 594 mmHg 31%
    17:00 +29°C° 0.1 mm 6 mps 593 mmHg 37%
    18:00 +27°C° 1.6 mm 5 mps 593 mmHg 47%
    19:00 +25°C° 1.6 mm 3 mps 593 mmHg 57%
    20:00 +21°C° 1.6 mm 2 mps 593 mmHg 67%
    21:00 +21°C° 0.6 mm 2 mps 594 mmHg 69%
    22:00 +21°C° 0.6 mm 1 mps 594 mmHg 72%
    23:00 +21°C° 0.6 mm 1 mps 594 mmHg 74%

    Day after tomorrow, 21 October, Saturday

    Time Temperature Precipitation Wind Pressure Humidity
    00:00 +21°C° 0 mm 1 mps 594 mmHg 73%
    01:00 +20°C° 0 mm 1 mps 594 mmHg 72%
    02:00 +20°C° 0 mm 1 mps 593 mmHg 71%
    03:00 +20°C° 0 mm 1 mps 594 mmHg 71%
    04:00 +18°C° 0 mm 2 mps 594 mmHg 70%
    05:00 +18°C° 0 mm 2 mps 594 mmHg 69%
    06:00 +19°C° 0 mm 2 mps 595 mmHg 67%
    07:00 +20°C° 0 mm 3 mps 596 mmHg 64%
    08:00 +21°C° 0 mm 3 mps 597 mmHg 62%
    09:00 +21°C° 0.2 mm 4 mps 598 mmHg 65%
    10:00 +21°C° 0.2 mm 4 mps 598 mmHg 67%
    11:00 +21°C° 0.2 mm 4 mps 598 mmHg 69%
    12:00 +21°C° 0.6 mm 4 mps 597 mmHg 73%
    13:00 +20°C° 0.6 mm 4 mps 597 mmHg 76%
    14:00 +20°C° 0.6 mm 4 mps 597 mmHg 80%
    15:00 +19°C° 0.8 mm 4 mps 596 mmHg 82%
    16:00 +19°C° 0.8 mm 4 mps 596 mmHg 85%
    17:00 +18°C° 0.8 mm 4 mps 596 mmHg 88%
    18:00 +17°C° 0.5 mm 4 mps 597 mmHg 89%
    19:00 +17°C° 0.5 mm 4 mps 598 mmHg 90%
    20:00 +17°C° 0.5 mm 4 mps 598 mmHg 91%
    21:00 +16°C° 0.7 mm 3 mps 599 mmHg 91%
    22:00 +16°C° 0.7 mm 3 mps 599 mmHg 91%
    23:00 +16°C° 0.7 mm 3 mps 600 mmHg 92%

    22 October, Sunday

    Time Temperature Precipitation Wind Pressure Humidity
    00:00 +16°C° 0.6 mm 3 mps 599 mmHg 92%
    01:00 +14°C° 0.6 mm 3 mps 599 mmHg 93%
    02:00 +14°C° 0.6 mm 3 mps 599 mmHg 93%
    03:00 +14°C° 0.5 mm 3 mps 599 mmHg 93%
    04:00 +13°C° 0.5 mm 3 mps 599 mmHg 94%
    05:00 +13°C° 0.5 mm 3 mps 599 mmHg 94%
    06:00 +13°C° 0.4 mm 3 mps 600 mmHg 94%
    07:00 +13°C° 0.4 mm 3 mps 600 mmHg 94%
    08:00 +13°C° 0.4 mm 3 mps 600 mmHg 94%
    09:00 +12°C° 0.4 mm 3 mps 600 mmHg 93%
    10:00 +13°C° 0.4 mm 2 mps 600 mmHg 93%
    11:00 +13°C° 0.4 mm 2 mps 600 mmHg 93%
    12:00 +14°C° 0.2 mm 2 mps 599 mmHg 91%
    13:00 +13°C° 0.2 mm 3 mps 598 mmHg 90%
    14:00 +14°C° 0.2 mm 3 mps 598 mmHg 88%
    15:00 +14°C° 0.1 mm 3 mps 597 mmHg 88%
    16:00 +13°C° 0.1 mm 3 mps 597 mmHg 88%
    17:00 +13°C° 0.1 mm 3 mps 596 mmHg 88%
    18:00 +14°C° 0.1 mm 2 mps 597 mmHg 88%
    19:00 +14°C° 0.1 mm 2 mps 597 mmHg 89%
    20:00 +14°C° 0.1 mm 2 mps 598 mmHg 90%
    21:00 +14°C° 0 mm 2 mps 598 mmHg 90%
    22:00 +13°C° 0 mm 2 mps 598 mmHg 90%
    23:00 +13°C° 0 mm 1 mps 598 mmHg 90%

    23 October, Monday

    Time Temperature Precipitation Wind Pressure Humidity
    00:00 +13°C° 0 mm 1 mps 597 mmHg 89%
    01:00 +13°C° 0 mm 1 mps 597 mmHg 89%
    02:00 +13°C° 0 mm 1 mps 596 mmHg 88%
    03:00 +13°C° 0 mm 1 mps 596 mmHg 88%
    04:00 +13°C° 0 mm 1 mps 596 mmHg 88%
    05:00 +13°C° 0 mm 1 mps 596 mmHg 88%
    06:00 +14°C° 0 mm 1 mps 597 mmHg 83%
    07:00 +15°C° 0 mm 1 mps 598 mmHg 78%
    08:00 +16°C° 0 mm 2 mps 598 mmHg 73%
    09:00 +18°C° 0 mm 2 mps 599 mmHg 66%
    10:00 +19°C° 0 mm 2 mps 599 mmHg 58%
    11:00 +21°C° 0 mm 2 mps 599 mmHg 51%
    12:00 +22°C° 0 mm 3 mps 598 mmHg 49%
    13:00 +24°C° 0 mm 3 mps 598 mmHg 48%
    14:00 +25°C° 0 mm 3 mps 597 mmHg 46%
    15:00 +24°C° 0.1 mm 3 mps 597 mmHg 48%
    16:00 +22°C° 0.1 mm 3 mps 597 mmHg 51%
    17:00 +21°C° 0.1 mm 4 mps 596 mmHg 53%
    18:00 +20°C° 0.1 mm 3 mps 596 mmHg 56%
    19:00 +19°C° 0.1 mm 3 mps 597 mmHg 59%
    20:00 +18°C° 0.1 mm 3 mps 597 mmHg 62%
    21:00 +17°C° 0 mm 2 mps 597 mmHg 62%
    22:00 +17°C° 0 mm 2 mps 596 mmHg 63%
    23:00 +17°C° 0 mm 2 mps 596 mmHg 63%

    24 October, Tuesday

    Time Temperature Precipitation Wind Pressure Humidity
    00:00 +17°C° 0 mm 2 mps 596 mmHg 64%
    01:00 +17°C° 0 mm 2 mps 595 mmHg 65%
    02:00 +17°C° 0 mm 2 mps 595 mmHg 66%
    03:00 +17°C° 0 mm 2 mps 595 mmHg 66%
    04:00 +17°C° 0 mm 2 mps 595 mmHg 67%
    05:00 +17°C° 0 mm 2 mps 594 mmHg 67%
    06:00 +18°C° 0 mm 2 mps 595 mmHg 60%
    07:00 +20°C° 0 mm 2 mps 596 mmHg 53%
    08:00 +23°C° 0 mm 2 mps 597 mmHg 46%
    09:00 +24°C° 0 mm 2 mps 597 mmHg 41%
    10:00 +26°C° 0 mm 2 mps 598 mmHg 37%
    11:00 +27°C° 0 mm 2 mps 598 mmHg 32%
    12:00 +28°C° 0 mm 3 mps 597 mmHg 32%
    13:00 +29°C° 0 mm 4 mps 597 mmHg 31%
    14:00 +30°C° 0 mm 5 mps 596 mmHg 30%
    15:00 +29°C° 0.3 mm 5 mps 596 mmHg 33%
    16:00 +28°C° 0.3 mm 5 mps 596 mmHg 36%
    17:00 +27°C° 0.3 mm 5 mps 595 mmHg 39%
    18:00 +25°C° 0.3 mm 4 mps 596 mmHg 43%
    19:00 +24°C° 0.3 mm 3 mps 596 mmHg 48%
    20:00 +21°C° 0.3 mm 2 mps 596 mmHg 53%
    21:00 +22°C° 0.1 mm 1 mps 596 mmHg 54%
    22:00 +22°C° 0.1 mm 1 mps 596 mmHg 55%
    23:00 +21°C° 0.1 mm 1 mps 596 mmHg 57%
    Show more